Time,TemperatureF,DewpointF,PressureIn,WindDirection,WindDirectionDegrees,WindSpeedMPH,WindSpeedGustMPH,Humidity,HourlyPrecipIn,Conditions,Clouds,dailyrainin,SoftwareType,DateUTC
2013-10-19 00:22:00,39.0,19.0,29.99,SW,220,9.0,-999.0,44,-99.99,,,-99.99,,2013-10-19 06:22:00,
2013-10-19 01:21:00,39.0,19.0,29.97,WSW,250,5.0,-999.0,44,-99.99,,,-99.99,,2013-10-19 07:21:00,
2013-10-19 01:42:00,39.0,19.0,29.97,West,280,6.0,-999.0,44,-99.99,,,-99.99,,2013-10-19 07:42:00,
2013-10-19 02:22:00,39.0,19.0,29.97,SSW,210,5.0,-999.0,44,-99.99,,,-99.99,,2013-10-19 08:22:00,
2013-10-19 02:42:00,39.0,19.0,29.97,SW,230,7.0,-999.0,44,-99.99,,,-99.99,,2013-10-19 08:42:00,
2013-10-19 03:21:00,39.0,19.0,29.96,SW,220,7.0,-999.0,44,-99.99,,,-99.99,,2013-10-19 09:21:00,
2013-10-19 03:43:00,39.0,19.0,29.95,South,180,6.0,-999.0,44,-99.99,,,-99.99,,2013-10-19 09:43:00,
2013-10-19 04:23:00,39.0,19.0,29.94,SSW,200,7.0,-999.0,44,-99.99,,,-99.99,,2013-10-19 10:23:00,
2013-10-19 04:42:00,39.0,19.0,29.95,North,0,0.0,-999.0,44,-99.99,,,-99.99,,2013-10-19 10:42:00,
2013-10-19 05:22:00,37.0,21.0,29.95,North,0,0.0,-999.0,51,-99.99,,,-99.99,,2013-10-19 11:22:00,
2013-10-19 05:42:00,37.0,19.0,29.95,SW,220,6.0,-999.0,47,-99.99,,,-99.99,,2013-10-19 11:42:00,
2013-10-19 07:42:00,37.0,19.0,29.95,SSW,210,8.0,-999.0,47,-99.99,,,-99.99,,2013-10-19 13:42:00,
2013-10-19 08:21:00,37.0,19.0,29.95,SSW,200,8.0,-999.0,47,-99.99,,,-99.99,,2013-10-19 14:21:00,
2013-10-19 09:22:00,39.0,19.0,29.96,SSW,210,8.0,-999.0,44,-99.99,,,-99.99,,2013-10-19 15:22:00,
2013-10-19 09:44:00,39.0,19.0,29.95,SW,220,9.0,-999.0,44,-99.99,,,-99.99,,2013-10-19 15:44:00,
2013-10-19 10:24:00,45.0,23.0,29.95,SSW,200,9.0,-999.0,42,-99.99,,,-99.99,,2013-10-19 16:24:00,
2013-10-19 10:42:00,45.0,23.0,29.95,South,190,10.0,15.0,42,-99.99,,,-99.99,,2013-10-19 16:42:00,
2013-10-19 11:22:00,48.0,25.0,29.95,South,190,10.0,-999.0,39,-99.99,,,-99.99,,2013-10-19 17:22:00,
2013-10-19 11:43:00,50.0,27.0,29.94,South,180,8.0,-999.0,39,-99.99,,,-99.99,,2013-10-19 17:43:00,
2013-10-19 12:21:00,54.0,28.0,29.94,SSE,160,6.0,-999.0,37,-99.99,,,-99.99,,2013-10-19 18:21:00,
2013-10-19 12:42:00,54.0,28.0,29.93,South,190,8.0,-999.0,37,-99.99,,,-99.99,,2013-10-19 18:42:00,
2013-10-19 13:22:00,55.0,28.0,29.92,South,180,9.0,-999.0,35,-99.99,,,-99.99,,2013-10-19 19:22:00,
2013-10-19 13:42:00,55.0,28.0,29.91,South,180,8.0,-999.0,35,-99.99,,,-99.99,,2013-10-19 19:42:00,
2013-10-19 14:11:00,54.0,28.0,29.90,South,170,10.0,17.0,37,-99.99,,,-99.99,,2013-10-19 20:11:00,
2013-10-19 14:22:00,54.0,28.0,29.90,South,170,10.0,17.0,37,-99.99,,,-99.99,,2013-10-19 20:22:00,
2013-10-19 14:42:00,59.0,30.0,29.90,West,260,10.0,16.0,33,-99.99,,,-99.99,,2013-10-19 20:42:00,
2013-10-19 15:21:00,59.0,30.0,29.89,WSW,250,10.0,17.0,33,-99.99,,,-99.99,,2013-10-19 21:21:00,
2013-10-19 15:44:00,59.0,28.0,29.89,WNW,290,13.0,21.0,30,-99.99,,,-99.99,,2013-10-19 21:44:00,
2013-10-19 16:24:00,59.0,30.0,29.88,WNW,300,9.0,-999.0,33,-99.99,,,-99.99,,2013-10-19 22:24:00,
2013-10-19 16:43:00,57.0,28.0,29.89,WNW,300,9.0,-999.0,33,-99.99,,,-99.99,,2013-10-19 22:43:00,
2013-10-19 17:22:00,57.0,28.0,29.89,WNW,290,8.0,-999.0,33,-99.99,,,-99.99,,2013-10-19 23:22:00,
2013-10-19 17:42:00,57.0,28.0,29.88,WNW,290,10.0,-999.0,33,-99.99,,,-99.99,,2013-10-19 23:42:00,
2013-10-19 18:22:00,55.0,28.0,29.88,West,280,8.0,-999.0,35,-99.99,,,-99.99,,2013-10-20 00:22:00,
2013-10-19 18:42:00,55.0,27.0,29.88,West,280,6.0,-999.0,32,-99.99,,,-99.99,,2013-10-20 00:42:00,
2013-10-19 19:21:00,54.0,27.0,29.88,North,0,0.0,-999.0,34,-99.99,,,-99.99,,2013-10-20 01:21:00,
2013-10-19 19:42:00,54.0,27.0,29.88,North,0,0.0,-999.0,34,-99.99,,,-99.99,,2013-10-20 01:42:00,
2013-10-19 20:22:00,52.0,28.0,29.88,North,0,0.0,-999.0,40,-99.99,,,-99.99,,2013-10-20 02:22:00,
2013-10-19 20:42:00,50.0,30.0,29.88,North,0,0.0,-999.0,46,-99.99,,,-99.99,,2013-10-20 02:42:00,
2013-10-19 21:21:00,54.0,28.0,29.89,NW,310,7.0,-999.0,37,-99.99,,,-99.99,,2013-10-20 03:21:00,
2013-10-19 21:44:00,54.0,28.0,29.89,WNW,300,8.0,-999.0,37,-99.99,,,-99.99,,2013-10-20 03:44:00,
2013-10-19 22:02:00,-999.0,-99.9,29.90,WNW,300,8.0,-999.0,-999,-99.99,,,-99.99,,2013-10-20 04:02:00,
2013-10-19 22:24:00,52.0,28.0,29.92,NNW,330,8.0,-999.0,40,-99.99,,,-99.99,,2013-10-20 04:24:00,
2013-10-19 22:44:00,52.0,28.0,29.93,NW,320,10.0,15.0,40,-99.99,,,-99.99,,2013-10-20 04:44:00,
2013-10-19 23:13:00,52.0,28.0,29.94,NW,320,9.0,-999.0,40,-99.99,,,-99.99,,2013-10-20 05:13:00,
2013-10-19 23:23:00,52.0,28.0,29.94,NW,320,9.0,-999.0,40,-99.99,,,-99.99,,2013-10-20 05:23:00,
2013-10-19 23:43:00,50.0,28.0,29.96,NW,320,8.0,-999.0,43,-99.99,,,-99.99,,2013-10-20 05:43:00,